Time,TemperatureF,DewpointF,PressureIn,WindDirection,WindDirectionDegrees,WindSpeedMPH,WindSpeedGustMPH,Humidity,HourlyPrecipIn,Conditions,Clouds,dailyrainin,SoftwareType,DateUTC
2014-12-27 00:01:00,41.7,36.3,30.05,SSE,157,2.7,-999.0,81,-99.99,,,0.00,Acu-Link.com,2014-12-27 05:01:00,
2014-12-27 00:23:00,40.8,35.7,30.05,SSE,157,0.0,-999.0,82,-99.99,,,0.00,Acu-Link.com,2014-12-27 05:23:00,
2014-12-27 00:38:00,39.6,35.2,30.06,South,180,0.0,-999.0,84,-99.99,,,0.00,Acu-Link.com,2014-12-27 05:38:00,
2014-12-27 00:53:00,38.8,34.4,30.06,NNW,337,0.0,-999.0,84,-99.99,,,0.00,Acu-Link.com,2014-12-27 05:53:00,
2014-12-27 01:10:00,38.3,34.2,30.06,ESE,112,0.0,-999.0,85,-99.99,,,0.00,Acu-Link.com,2014-12-27 06:10:00,
2014-12-27 01:26:00,37.8,34.0,30.06,South,180,2.7,-999.0,86,-99.99,,,0.00,Acu-Link.com,2014-12-27 06:26:00,
2014-12-27 01:41:00,40.3,35.3,30.06,SW,225,1.7,-999.0,82,-99.99,,,0.00,Acu-Link.com,2014-12-27 06:41:00,
2014-12-27 01:56:00,40.1,35.4,30.06,SSE,157,3.2,-999.0,83,-99.99,,,0.00,Acu-Link.com,2014-12-27 06:56:00,
2014-12-27 02:12:00,39.2,35.1,30.06,South,180,3.7,-999.0,85,-99.99,,,0.00,Acu-Link.com,2014-12-27 07:12:00,
2014-12-27 02:28:00,41.2,35.8,30.06,ESE,112,4.2,-999.0,81,-99.99,,,0.00,Acu-Link.com,2014-12-27 07:28:00,
2014-12-27 02:45:00,42.1,36.4,30.06,South,180,3.7,-999.0,80,-99.99,,,0.00,Acu-Link.com,2014-12-27 07:45:00,
2014-12-27 03:01:00,41.9,36.2,30.07,SE,135,4.2,-999.0,80,-99.99,,,0.00,Acu-Link.com,2014-12-27 08:01:00,
2014-12-27 03:16:00,42.3,36.3,30.06,SSE,157,4.7,-999.0,79,-99.99,,,0.00,Acu-Link.com,2014-12-27 08:16:00,
2014-12-27 03:31:00,42.4,36.4,30.07,South,180,5.8,-999.0,79,-99.99,,,0.00,Acu-Link.com,2014-12-27 08:31:00,
2014-12-27 03:46:00,41.7,35.7,30.05,SSE,157,4.7,-999.0,79,-99.99,,,0.00,Acu-Link.com,2014-12-27 08:46:00,
2014-12-27 04:02:00,42.1,36.1,30.05,SSE,157,5.8,-999.0,79,-99.99,,,0.00,Acu-Link.com,2014-12-27 09:02:00,
2014-12-27 04:17:00,42.8,36.4,30.04,SSE,157,5.8,-999.0,78,-99.99,,,0.00,Acu-Link.com,2014-12-27 09:17:00,
2014-12-27 04:32:00,43.0,36.6,30.04,SE,135,5.8,-999.0,78,-99.99,,,0.00,Acu-Link.com,2014-12-27 09:32:00,
2014-12-27 04:48:00,42.6,36.2,30.04,SSE,157,6.8,-999.0,78,-99.99,,,0.00,Acu-Link.com,2014-12-27 09:48:00,
2014-12-27 05:03:00,42.1,35.7,30.05,South,180,6.8,-999.0,78,-99.99,,,0.00,Acu-Link.com,2014-12-27 10:03:00,
2014-12-27 05:18:00,42.3,35.9,30.04,South,180,8.3,-999.0,78,-99.99,,,0.00,Acu-Link.com,2014-12-27 10:18:00,
2014-12-27 05:34:00,42.4,36.0,30.04,SSE,157,7.8,-999.0,78,-99.99,,,0.00,Acu-Link.com,2014-12-27 10:34:00,
2014-12-27 05:49:00,42.6,36.2,30.05,SSE,157,8.3,-999.0,78,-99.99,,,0.00,Acu-Link.com,2014-12-27 10:49:00,
2014-12-27 06:05:00,43.0,36.6,30.04,SSE,157,10.4,-999.0,78,-99.99,,,0.00,Acu-Link.com,2014-12-27 11:05:00,
2014-12-27 06:21:00,43.0,36.3,30.04,SSE,157,8.9,-999.0,77,-99.99,,,0.00,Acu-Link.com,2014-12-27 11:21:00,
2014-12-27 06:37:00,43.2,36.5,30.05,South,180,9.9,-999.0,77,-99.99,,,0.00,Acu-Link.com,2014-12-27 11:37:00,
2014-12-27 06:52:00,43.7,36.6,30.06,South,180,8.9,-999.0,76,-99.99,,,0.00,Acu-Link.com,2014-12-27 11:52:00,
2014-12-27 07:07:00,43.3,36.3,30.07,SSW,202,6.3,-999.0,76,-99.99,,,0.00,Acu-Link.com,2014-12-27 12:07:00,
2014-12-27 07:23:00,43.3,36.3,30.06,South,180,5.3,-999.0,76,-99.99,,,0.00,Acu-Link.com,2014-12-27 12:23:00,
2014-12-27 07:38:00,43.5,36.4,30.06,South,180,6.3,-999.0,76,-99.99,,,0.00,Acu-Link.com,2014-12-27 12:38:00,
2014-12-27 07:54:00,43.7,36.6,30.07,SSW,202,8.9,-999.0,76,-99.99,,,0.00,Acu-Link.com,2014-12-27 12:54:00,
2014-12-27 08:10:00,43.9,36.8,30.06,South,180,5.3,-999.0,76,-99.99,,,0.00,Acu-Link.com,2014-12-27 13:10:00,
2014-12-27 08:26:00,43.7,36.6,30.07,South,180,5.8,-999.0,76,-99.99,,,0.00,Acu-Link.com,2014-12-27 13:26:00,
2014-12-27 08:44:00,43.9,36.8,30.07,South,180,4.7,-999.0,76,-99.99,,,0.00,Acu-Link.com,2014-12-27 13:44:00,
2014-12-27 08:59:00,44.2,37.5,30.07,South,180,6.3,-999.0,77,-99.99,,,0.00,Acu-Link.com,2014-12-27 13:59:00,
2014-12-27 09:14:00,44.2,38.1,30.06,SSE,157,8.3,-999.0,79,-99.99,,,0.00,Acu-Link.com,2014-12-27 14:14:00,
2014-12-27 09:29:00,45.7,38.9,30.06,SSE,157,8.3,-999.0,77,-99.99,,,0.00,Acu-Link.com,2014-12-27 14:29:00,
2014-12-27 09:44:00,45.7,38.9,30.06,SSW,202,8.3,-999.0,77,-99.99,,,0.00,Acu-Link.com,2014-12-27 14:44:00,
2014-12-27 10:01:00,46.8,40.0,30.06,SSW,202,7.8,-999.0,77,-99.99,,,0.00,Acu-Link.com,2014-12-27 15:01:00,
2014-12-27 10:16:00,48.0,40.5,30.05,South,180,11.9,-999.0,75,-99.99,,,0.00,Acu-Link.com,2014-12-27 15:16:00,
2014-12-27 10:31:00,48.6,40.7,30.05,South,180,13.0,-999.0,74,-99.99,,,0.00,Acu-Link.com,2014-12-27 15:31:00,
2014-12-27 10:46:00,48.9,41.3,30.04,South,180,12.5,-999.0,75,-99.99,,,0.00,Acu-Link.com,2014-12-27 15:46:00,
2014-12-27 11:02:00,49.5,41.6,30.04,SSW,202,13.5,-999.0,74,-99.99,,,0.00,Acu-Link.com,2014-12-27 16:02:00,
2014-12-27 11:17:00,48.7,41.1,30.02,South,180,16.6,-999.0,75,-99.99,,,0.00,Acu-Link.com,2014-12-27 16:17:00,
2014-12-27 11:33:00,48.6,42.1,30.03,South,180,11.4,-999.0,78,-99.99,,,0.00,Acu-Link.com,2014-12-27 16:33:00,
2014-12-27 11:50:00,48.7,41.8,30.01,SSW,202,11.9,-999.0,77,-99.99,,,0.00,Acu-Link.com,2014-12-27 16:50:00,
2014-12-27 12:17:00,49.6,42.7,30.01,SSW,202,8.9,-999.0,77,-99.99,,,0.00,Acu-Link.com,2014-12-27 17:17:00,
2014-12-27 15:38:00,48.9,44.9,29.95,SSW,202,8.9,-999.0,86,-99.99,,,0.00,Acu-Link.com,2014-12-27 20:38:00,
2014-12-27 15:53:00,48.7,44.7,29.95,SW,225,7.3,-999.0,86,-99.99,,,0.00,Acu-Link.com,2014-12-27 20:53:00,
2014-12-27 16:08:00,48.6,44.6,29.95,SSW,202,5.8,-999.0,86,-99.99,,,0.00,Acu-Link.com,2014-12-27 21:08:00,
2014-12-27 16:24:00,48.2,44.8,29.95,SSW,202,4.7,-999.0,88,-99.99,,,0.00,Acu-Link.com,2014-12-27 21:24:00,
2014-12-27 16:39:00,48.0,44.9,29.96,South,180,7.3,-999.0,89,-99.99,,,0.00,Acu-Link.com,2014-12-27 21:39:00,
2014-12-27 16:54:00,47.8,44.7,29.96,South,180,8.3,-999.0,89,-99.99,,,0.00,Acu-Link.com,2014-12-27 21:54:00,
2014-12-27 17:09:00,47.7,45.2,29.96,SSW,202,6.8,-999.0,91,-99.99,,,0.00,Acu-Link.com,2014-12-27 22:09:00,
2014-12-27 17:24:00,47.3,45.7,29.96,South,180,9.4,-999.0,94,-99.99,,,0.00,Acu-Link.com,2014-12-27 22:24:00,
2014-12-27 17:39:00,46.9,45.8,29.95,SSW,202,5.3,-999.0,96,-99.99,,,0.00,Acu-Link.com,2014-12-27 22:39:00,
2014-12-27 17:55:00,46.8,46.0,29.96,SSW,202,6.3,-999.0,97,-99.99,,,0.00,Acu-Link.com,2014-12-27 22:55:00,
2014-12-27 18:10:00,46.8,46.0,29.97,SSE,157,4.2,-999.0,97,-99.99,,,0.01,Acu-Link.com,2014-12-27 23:10:00,
2014-12-27 18:25:00,46.8,46.3,29.96,SSW,202,4.2,-999.0,98,-99.99,,,0.05,Acu-Link.com,2014-12-27 23:25:00,
2014-12-27 18:40:00,46.6,46.1,29.96,South,180,8.3,-999.0,98,-99.99,,,0.05,Acu-Link.com,2014-12-27 23:40:00,